Time,TemperatureF,DewpointF,PressureIn,WindDirection,WindDirectionDegrees,WindSpeedMPH,WindSpeedGustMPH,Humidity,HourlyPrecipIn,Conditions,Clouds,dailyrainin,SoftwareType,DateUTC
2013-02-09 00:07:00,15.7,13.0,30.37,NE,54,1.0,3.0,87,0.00,,,0.00,weatherlink.com 1.10,2013-02-09 05:07:00,
2013-02-09 00:22:00,15.4,12.0,30.37,North,360,0.0,1.0,87,0.00,,,0.00,weatherlink.com 1.10,2013-02-09 05:22:00,
2013-02-09 00:53:00,11.5,8.0,30.38,WNW,300,0.0,0.0,87,0.00,,,0.00,weatherlink.com 1.10,2013-02-09 05:53:00,
2013-02-09 01:08:00,9.8,8.0,30.38,WNW,300,0.0,0.0,90,0.00,,,0.00,weatherlink.com 1.10,2013-02-09 06:08:00,
2013-02-09 01:23:00,8.9,7.0,30.39,WSW,238,0.0,0.0,91,0.00,,,0.00,weatherlink.com 1.10,2013-02-09 06:23:00,
2013-02-09 01:38:00,9.7,8.0,30.39,WSW,238,0.0,0.0,92,0.00,,,0.00,weatherlink.com 1.10,2013-02-09 06:38:00,
2013-02-09 01:53:00,8.3,6.0,30.39,WSW,238,0.0,0.0,90,0.00,,,0.00,weatherlink.com 1.10,2013-02-09 06:53:00,
2013-02-09 02:08:00,7.7,6.0,30.40,WSW,240,0.0,0.0,92,0.00,,,0.00,weatherlink.com 1.10,2013-02-09 07:08:00,
2013-02-09 02:23:00,8.2,6.0,30.41,West,270,0.0,0.0,92,0.00,,,0.00,weatherlink.com 1.10,2013-02-09 07:23:00,
2013-02-09 02:38:00,8.4,7.0,30.41,West,270,0.0,0.0,92,0.00,,,0.00,weatherlink.com 1.10,2013-02-09 07:38:00,
2013-02-09 02:53:00,8.3,7.0,30.41,West,270,0.0,0.0,92,0.00,,,0.00,weatherlink.com 1.10,2013-02-09 07:53:00,
2013-02-09 03:08:00,8.0,6.0,30.41,West,270,0.0,0.0,92,0.00,,,0.00,weatherlink.com 1.10,2013-02-09 08:08:00,
2013-02-09 03:23:00,5.6,3.0,30.41,West,270,0.0,0.0,89,0.00,,,0.00,weatherlink.com 1.10,2013-02-09 08:23:00,
2013-02-09 03:38:00,4.6,2.0,30.41,West,269,0.0,0.0,90,0.00,,,0.00,weatherlink.com 1.10,2013-02-09 08:38:00,
2013-02-09 03:53:00,3.6,1.0,30.40,West,270,0.0,0.0,90,0.00,,,0.00,weatherlink.com 1.10,2013-02-09 08:53:00,
2013-02-09 04:08:00,2.7,0.0,30.41,West,269,0.0,0.0,89,0.00,,,0.00,weatherlink.com 1.10,2013-02-09 09:08:00,
2013-02-09 04:23:00,2.6,0.0,30.41,West,270,0.0,0.0,90,0.00,,,0.00,weatherlink.com 1.10,2013-02-09 09:23:00,
2013-02-09 04:38:00,2.1,0.0,30.42,West,269,0.0,0.0,89,0.00,,,0.00,weatherlink.com 1.10,2013-02-09 09:38:00,
2013-02-09 04:54:00,1.4,-1.0,30.43,West,269,0.0,0.0,89,0.00,,,0.00,weatherlink.com 1.10,2013-02-09 09:54:00,
2013-02-09 05:09:00,1.6,-1.0,30.43,West,269,0.0,0.0,89,0.00,,,0.00,weatherlink.com 1.10,2013-02-09 10:09:00,
2013-02-09 05:23:00,1.6,-1.0,30.43,West,269,0.0,0.0,89,0.00,,,0.00,weatherlink.com 1.10,2013-02-09 10:23:00,
2013-02-09 05:38:00,1.9,-1.0,30.43,West,270,0.0,0.0,89,0.00,,,0.00,weatherlink.com 1.10,2013-02-09 10:38:00,
2013-02-09 05:54:00,2.1,0.0,30.41,ENE,78,1.0,1.0,89,0.00,,,0.00,weatherlink.com 1.10,2013-02-09 10:54:00,
2013-02-09 06:09:00,1.0,-2.0,30.42,ESE,102,0.0,0.0,87,0.00,,,0.00,weatherlink.com 1.10,2013-02-09 11:09:00,
2013-02-09 06:24:00,-0.4,-3.0,30.43,East,101,0.0,0.0,87,0.00,,,0.00,weatherlink.com 1.10,2013-02-09 11:24:00,
2013-02-09 06:39:00,-1.1,-4.0,30.43,East,101,0.0,0.0,87,0.00,,,0.00,weatherlink.com 1.10,2013-02-09 11:39:00,
2013-02-09 06:54:00,-2.6,-6.0,30.44,West,259,0.0,0.0,86,0.00,,,0.00,weatherlink.com 1.10,2013-02-09 11:54:00,
2013-02-09 07:09:00,-2.6,-5.0,30.44,West,259,0.0,0.0,88,0.00,,,0.00,weatherlink.com 1.10,2013-02-09 12:09:00,
2013-02-09 07:24:00,-2.7,-5.0,30.45,West,259,0.0,0.0,88,0.00,,,0.00,weatherlink.com 1.10,2013-02-09 12:24:00,
2013-02-09 07:39:00,-3.0,-6.0,30.46,West,259,0.0,0.0,87,0.00,,,0.00,weatherlink.com 1.10,2013-02-09 12:39:00,
2013-02-09 07:54:00,-2.3,-5.0,30.45,West,259,0.0,0.0,88,0.00,,,0.00,weatherlink.com 1.10,2013-02-09 12:54:00,
2013-02-09 08:09:00,-2.4,-5.0,30.46,West,259,0.0,0.0,87,0.00,,,0.00,weatherlink.com 1.10,2013-02-09 13:09:00,
2013-02-09 08:24:00,-0.8,-3.0,30.46,West,259,0.0,0.0,89,0.00,,,0.00,weatherlink.com 1.10,2013-02-09 13:24:00,
2013-02-09 08:39:00,-0.2,-3.0,30.47,West,259,0.0,0.0,88,0.00,,,0.00,weatherlink.com 1.10,2013-02-09 13:39:00,
2013-02-09 08:54:00,1.6,-1.0,30.46,West,259,0.0,0.0,89,0.00,,,0.00,weatherlink.com 1.10,2013-02-09 13:54:00,
2013-02-09 09:09:00,4.1,2.0,30.46,SW,226,1.0,1.0,90,0.00,,,0.00,weatherlink.com 1.10,2013-02-09 14:09:00,
2013-02-09 09:25:00,7.2,5.0,30.47,WSW,238,0.0,0.0,91,0.00,,,0.00,weatherlink.com 1.10,2013-02-09 14:25:00,
2013-02-09 09:40:00,9.2,7.0,30.47,WSW,255,1.0,2.0,89,0.00,,,0.00,weatherlink.com 1.10,2013-02-09 14:40:00,
2013-02-09 09:55:00,10.1,8.0,30.48,West,262,2.0,3.0,89,0.00,,,0.00,weatherlink.com 1.10,2013-02-09 14:55:00,
2013-02-09 10:10:00,12.0,10.0,30.48,West,270,1.0,1.0,91,0.00,,,0.00,weatherlink.com 1.10,2013-02-09 15:10:00,
2013-02-09 10:25:00,15.8,14.0,30.47,ESE,111,0.0,0.0,93,0.00,,,0.00,weatherlink.com 1.10,2013-02-09 15:25:00,
2013-02-09 10:40:00,18.1,16.0,30.47,SSE,166,1.0,2.0,90,0.00,,,0.00,weatherlink.com 1.10,2013-02-09 15:40:00,
2013-02-09 10:55:00,18.9,15.0,30.46,East,92,2.0,3.0,85,0.00,,,0.00,weatherlink.com 1.10,2013-02-09 15:55:00,
2013-02-09 11:10:00,19.9,16.0,30.46,East,100,2.0,3.0,85,0.00,,,0.00,weatherlink.com 1.10,2013-02-09 16:10:00,
2013-02-09 11:25:00,22.8,18.0,30.46,East,97,0.0,4.0,82,0.00,,,0.00,weatherlink.com 1.10,2013-02-09 16:25:00,
2013-02-09 11:40:00,24.8,19.0,30.46,SW,226,3.0,4.0,77,0.00,,,0.00,weatherlink.com 1.10,2013-02-09 16:40:00,
2013-02-09 11:56:00,25.1,18.0,30.45,SW,233,1.0,4.0,75,0.00,,,0.00,weatherlink.com 1.10,2013-02-09 16:56:00,
2013-02-09 12:11:00,26.3,19.0,30.45,SSE,147,3.0,4.0,75,0.00,,,0.00,weatherlink.com 1.10,2013-02-09 17:11:00,
2013-02-09 12:25:00,26.3,19.0,30.45,WSW,241,3.0,7.0,73,0.00,,,0.00,weatherlink.com 1.10,2013-02-09 17:25:00,
2013-02-09 12:41:00,27.5,19.0,30.44,West,260,2.0,6.0,71,0.00,,,0.00,weatherlink.com 1.10,2013-02-09 17:41:00,
2013-02-09 12:56:00,28.2,19.0,30.43,SSE,148,3.0,7.0,68,0.00,,,0.00,weatherlink.com 1.10,2013-02-09 17:56:00,
2013-02-09 13:11:00,28.6,19.0,30.42,SSW,205,2.0,6.0,68,0.00,,,0.00,weatherlink.com 1.10,2013-02-09 18:11:00,
2013-02-09 13:26:00,28.7,19.0,30.42,West,279,4.0,5.0,67,0.00,,,0.00,weatherlink.com 1.10,2013-02-09 18:26:00,
2013-02-09 13:41:00,28.8,20.0,30.42,WSW,248,6.0,6.0,69,0.00,,,0.00,weatherlink.com 1.10,2013-02-09 18:41:00,
2013-02-09 13:56:00,30.4,20.0,30.40,SE,131,0.0,7.0,65,0.00,,,0.00,weatherlink.com 1.10,2013-02-09 18:56:00,
2013-02-09 14:11:00,31.4,20.0,30.40,WSW,244,5.0,7.0,62,0.00,,,0.00,weatherlink.com 1.10,2013-02-09 19:11:00,
2013-02-09 14:26:00,30.5,19.0,30.39,WNW,284,3.0,6.0,63,0.00,,,0.00,weatherlink.com 1.10,2013-02-09 19:26:00,
2013-02-09 14:41:00,30.9,20.0,30.38,SSE,161,2.0,7.0,63,0.00,,,0.00,weatherlink.com 1.10,2013-02-09 19:41:00,
2013-02-09 14:56:00,32.5,19.0,30.37,SSE,158,3.0,8.0,59,0.00,,,0.00,weatherlink.com 1.10,2013-02-09 19:56:00,
2013-02-09 15:11:00,32.3,20.0,30.37,SW,217,5.0,7.0,60,0.00,,,0.00,weatherlink.com 1.10,2013-02-09 20:11:00,
2013-02-09 15:26:00,32.7,18.0,30.36,SSE,153,3.0,8.0,55,0.00,,,0.00,weatherlink.com 1.10,2013-02-09 20:26:00,
2013-02-09 15:41:00,33.6,18.0,30.36,SSW,212,7.0,9.0,53,0.01,,,0.01,weatherlink.com 1.10,2013-02-09 20:41:00,
2013-02-09 15:57:00,33.4,17.0,30.36,South,169,4.0,10.0,52,0.01,,,0.01,weatherlink.com 1.10,2013-02-09 20:57:00,
2013-02-09 16:12:00,33.6,18.0,30.35,ESE,121,2.0,8.0,52,0.02,,,0.02,weatherlink.com 1.10,2013-02-09 21:12:00,
2013-02-09 16:27:00,33.5,17.0,30.34,ESE,103,3.0,8.0,52,0.02,,,0.02,weatherlink.com 1.10,2013-02-09 21:27:00,
2013-02-09 16:42:00,33.2,17.0,30.34,ESE,110,3.0,10.0,52,0.01,,,0.02,weatherlink.com 1.10,2013-02-09 21:42:00,
2013-02-09 16:57:00,33.1,17.0,30.35,SSE,160,4.0,7.0,52,0.01,,,0.02,weatherlink.com 1.10,2013-02-09 21:57:00,
2013-02-09 17:12:00,33.2,17.0,30.35,SSW,196,3.0,6.0,52,0.01,,,0.03,weatherlink.com 1.10,2013-02-09 22:12:00,
2013-02-09 17:27:00,32.2,17.0,30.34,South,169,3.0,5.0,54,0.01,,,0.03,weatherlink.com 1.10,2013-02-09 22:27:00,
2013-02-09 17:42:00,30.6,16.0,30.34,SE,134,0.0,4.0,56,0.01,,,0.03,weatherlink.com 1.10,2013-02-09 22:42:00,
2013-02-09 17:57:00,29.0,16.0,30.34,SSE,165,2.0,5.0,59,0.01,,,0.03,weatherlink.com 1.10,2013-02-09 22:57:00,
2013-02-09 18:12:00,27.8,16.0,30.35,South,177,0.0,3.0,62,0.00,,,0.03,weatherlink.com 1.10,2013-02-09 23:12:00,
2013-02-09 18:27:00,26.5,16.0,30.35,SE,143,0.0,1.0,65,0.00,,,0.03,weatherlink.com 1.10,2013-02-09 23:27:00,
2013-02-09 18:43:00,25.8,16.0,30.35,SSE,151,0.0,3.0,67,0.00,,,0.03,weatherlink.com 1.10,2013-02-09 23:43:00,
2013-02-09 18:58:00,25.3,16.0,30.35,SSE,152,0.0,2.0,68,0.00,,,0.03,weatherlink.com 1.10,2013-02-09 23:58:00,
2013-02-09 19:13:00,24.7,16.0,30.34,SSE,165,1.0,2.0,69,0.00,,,0.03,weatherlink.com 1.10,2013-02-10 00:13:00,
2013-02-09 19:27:00,24.2,16.0,30.34,SE,131,0.0,2.0,70,0.00,,,0.03,weatherlink.com 1.10,2013-02-10 00:27:00,
2013-02-09 19:43:00,23.8,16.0,30.34,SSE,152,0.0,2.0,71,0.00,,,0.03,weatherlink.com 1.10,2013-02-10 00:43:00,
2013-02-09 19:58:00,23.8,16.0,30.33,SE,132,1.0,3.0,72,0.00,,,0.03,weatherlink.com 1.10,2013-02-10 00:58:00,
2013-02-09 20:13:00,23.4,16.0,30.33,SE,136,1.0,4.0,73,0.00,,,0.03,weatherlink.com 1.10,2013-02-10 01:13:00,
2013-02-09 20:28:00,23.2,16.0,30.32,SE,125,3.0,4.0,73,0.00,,,0.03,weatherlink.com 1.10,2013-02-10 01:28:00,
2013-02-09 20:43:00,23.0,16.0,30.32,SE,125,2.0,5.0,73,0.00,,,0.03,weatherlink.com 1.10,2013-02-10 01:43:00,
2013-02-09 20:58:00,22.8,16.0,30.32,SE,146,4.0,6.0,76,0.00,,,0.03,weatherlink.com 1.10,2013-02-10 01:58:00,
2013-02-09 21:13:00,22.5,16.0,30.32,SE,141,1.0,3.0,77,0.00,,,0.03,weatherlink.com 1.10,2013-02-10 02:13:00,
2013-02-09 21:28:00,22.3,17.0,30.31,SE,125,2.0,6.0,79,0.00,,,0.03,weatherlink.com 1.10,2013-02-10 02:28:00,
2013-02-09 21:43:00,21.9,17.0,30.31,SE,143,4.0,5.0,81,0.00,,,0.03,weatherlink.com 1.10,2013-02-10 02:43:00,
2013-02-09 21:58:00,21.6,17.0,30.30,SE,128,1.0,7.0,83,0.00,,,0.03,weatherlink.com 1.10,2013-02-10 02:58:00,
2013-02-09 22:13:00,21.3,17.0,30.30,SSE,156,4.0,6.0,84,0.00,,,0.03,weatherlink.com 1.10,2013-02-10 03:13:00,
2013-02-09 22:29:00,21.1,18.0,30.30,SSE,167,3.0,7.0,86,0.00,,,0.03,weatherlink.com 1.10,2013-02-10 03:29:00,
2013-02-09 22:43:00,20.8,17.0,30.29,SSE,153,3.0,7.0,86,0.00,,,0.03,weatherlink.com 1.10,2013-02-10 03:43:00,
2013-02-09 22:59:00,20.5,18.0,30.29,SSW,207,1.0,7.0,88,0.00,,,0.03,weatherlink.com 1.10,2013-02-10 03:59:00,
2013-02-09 23:14:00,20.4,18.0,30.29,SE,131,0.0,6.0,89,0.00,,,0.03,weatherlink.com 1.10,2013-02-10 04:14:00,
2013-02-09 23:29:00,20.4,18.0,30.28,South,181,1.0,6.0,89,0.00,,,0.03,weatherlink.com 1.10,2013-02-10 04:29:00,
2013-02-09 23:44:00,20.5,18.0,30.29,WSW,252,1.0,6.0,90,0.00,,,0.03,weatherlink.com 1.10,2013-02-10 04:44:00,
2013-02-09 23:59:00,20.5,18.0,30.28,SE,141,3.0,5.0,90,0.00,,,0.00,weatherlink.com 1.10,2013-02-10 04:59:00,